Location: Seattle
(47.6064°N, 122.3308°W)
Time: 02:17:54
(UTC-08:00)

A-11 Canister half - Pass Details

Date: 02 December 2020
Orbit: 1524 x 1684 km, 47.3° (Epoch: 21 January)

Event Time Altitude Azimuth Distance (km) Brightness Sun altitude
Rises 07:40:46 0° 266° (W) 4,936 11.2 -0.5°
Reaches altitude 10° 07:43:57 10° 266° (W) 3,942 10.7 -0.1°
Maximum altitude 07:54:08 89° 181° (S) 1,660 9.3 1.3°
Drops below altitude 10° 08:04:02 10° 91° (E) 3,842 12.1 2.7°
Sets 08:07:06 0° 91° (E) 4,806 12.6 3.1°
